When you browse on this site, cookies collect data to enhance your experience and personalize the content and advertising you see.
Visit our Privacy Policy to learn more. By continuing to use the site, you agree to this use of cookies and data.
  • In Norway
  • List of Countries
  • For 7 days
  • Water Temperature
  • Satellite Maps
  • Weather Map
  • Weather Widgets
  • user-avatar
    Login

    Hourly Weather Oran

    Today, 20 January, Sunday

    Time Temperature Precipitation Wind Pressure Humidity
    00:00 +12°C° 0 mm 7 mps 750 mmHg 80%
    01:00 +12°C° 0.2 mm 7 mps 750 mmHg 78%
    02:00 +12°C° 0.2 mm 7 mps 749 mmHg 76%
    03:00 +13°C° 0.2 mm 6 mps 748 mmHg 74%
    04:00 +11°C° 0.6 mm 6 mps 748 mmHg 76%
    05:00 +11°C° 0.6 mm 7 mps 748 mmHg 78%
    06:00 +11°C° 0 mm 7 mps 747 mmHg 81%
    07:00 +12°C° 0.1 mm 8 mps 747 mmHg 79%
    08:00 +13°C° 0.1 mm 10 mps 747 mmHg 77%
    09:00 +13°C° 0.1 mm 11 mps 747 mmHg 75%
    10:00 +14°C° 0.7 mm 12 mps 747 mmHg 72%
    11:00 +14°C° 0.7 mm 13 mps 747 mmHg 69%
    12:00 +15°C° 0 mm 14 mps 747 mmHg 67%
    13:00 +14°C° 0.5 mm 13 mps 747 mmHg 67%
    14:00 +14°C° 0.5 mm 13 mps 747 mmHg 67%
    15:00 +14°C° 0.5 mm 13 mps 747 mmHg 67%
    16:00 +14°C° 1 mm 12 mps 747 mmHg 72%
    17:00 +13°C° 1 mm 11 mps 748 mmHg 76%
    18:00 +12°C° 1 mm 10 mps 748 mmHg 81%
    19:00 +12°C° 2.6 mm 8 mps 749 mmHg 81%
    20:00 +11°C° 2.6 mm 6 mps 749 mmHg 81%
    21:00 +12°C° 2.6 mm 5 mps 750 mmHg 82%
    22:00 +12°C° 0.4 mm 4 mps 750 mmHg 80%
    23:00 +12°C° 0.4 mm 3 mps 751 mmHg 79%

    Tomorrow, 21 January, Monday

    Time Temperature Precipitation Wind Pressure Humidity
    00:00 +12°C° 0.4 mm 3 mps 751 mmHg 78%
    01:00 +12°C° 0.1 mm 3 mps 751 mmHg 74%
    02:00 +12°C° 0.1 mm 4 mps 752 mmHg 71%
    03:00 +12°C° 0.1 mm 4 mps 752 mmHg 67%
    04:00 +12°C° 0 mm 4 mps 752 mmHg 66%
    05:00 +11°C° 0 mm 4 mps 752 mmHg 65%
    06:00 +10°C° 0 mm 5 mps 752 mmHg 64%
    07:00 +12°C° 0 mm 5 mps 753 mmHg 62%
    08:00 +12°C° 0 mm 5 mps 753 mmHg 60%
    09:00 +12°C° 0 mm 5 mps 753 mmHg 59%
    10:00 +12°C° 0 mm 5 mps 753 mmHg 56%
    11:00 +13°C° 0 mm 5 mps 754 mmHg 53%
    12:00 +13°C° 0 mm 5 mps 754 mmHg 51%
    13:00 +13°C° 0 mm 5 mps 754 mmHg 51%
    14:00 +13°C° 0 mm 5 mps 753 mmHg 51%
    15:00 +13°C° 0 mm 4 mps 753 mmHg 51%
    16:00 +12°C° 0 mm 4 mps 753 mmHg 54%
    17:00 +11°C° 0 mm 3 mps 754 mmHg 56%
    18:00 +10°C° 0 mm 3 mps 754 mmHg 59%
    19:00 +10°C° 0 mm 2 mps 754 mmHg 61%
    20:00 +10°C° 0 mm 2 mps 754 mmHg 63%
    21:00 +10°C° 0 mm 2 mps 755 mmHg 65%
    22:00 +10°C° 0.1 mm 3 mps 755 mmHg 65%
    23:00 +10°C° 0.1 mm 3 mps 755 mmHg 66%

    Day after tomorrow, 22 January, Tuesday

    Time Temperature Precipitation Wind Pressure Humidity
    00:00 +10°C° 0.1 mm 4 mps 755 mmHg 67%
    01:00 +10°C° 0.2 mm 4 mps 755 mmHg 67%
    02:00 +9°C° 0.2 mm 5 mps 755 mmHg 66%
    03:00 +9°C° 0.2 mm 5 mps 754 mmHg 66%
    04:00 +10°C° 0.1 mm 4 mps 754 mmHg 67%
    05:00 +8°C° 0.1 mm 4 mps 754 mmHg 67%
    06:00 +9°C° 0.1 mm 3 mps 754 mmHg 68%
    07:00 +8°C° 0 mm 4 mps 754 mmHg 67%
    08:00 +9°C° 0 mm 5 mps 754 mmHg 65%
    09:00 +10°C° 0 mm 5 mps 755 mmHg 64%
    10:00 +11°C° 0.1 mm 7 mps 754 mmHg 62%
    11:00 +12°C° 0.1 mm 8 mps 754 mmHg 60%
    12:00 +12°C° 0.1 mm 9 mps 753 mmHg 58%
    13:00 +12°C° 0.1 mm 10 mps 753 mmHg 57%
    14:00 +13°C° 0.1 mm 11 mps 752 mmHg 57%
    15:00 +13°C° 0.1 mm 12 mps 751 mmHg 56%
    16:00 +12°C° 0 mm 12 mps 750 mmHg 60%
    17:00 +12°C° 0 mm 12 mps 750 mmHg 63%
    18:00 +11°C° 0 mm 11 mps 750 mmHg 67%
    19:00 +10°C° 0.1 mm 12 mps 750 mmHg 68%
    20:00 +10°C° 0.1 mm 12 mps 750 mmHg 69%
    21:00 +10°C° 0.1 mm 12 mps 750 mmHg 69%
    22:00 +10°C° 0.6 mm 12 mps 750 mmHg 72%
    23:00 +11°C° 0.6 mm 11 mps 750 mmHg 75%

    23 January, Wednesday

    Time Temperature Precipitation Wind Pressure Humidity
    00:00 +11°C° 0.6 mm 11 mps 750 mmHg 78%
    01:00 +11°C° 1.2 mm 10 mps 749 mmHg 76%
    02:00 +11°C° 1.2 mm 10 mps 749 mmHg 73%
    03:00 +11°C° 1.2 mm 9 mps 749 mmHg 71%
    04:00 +11°C° 0.2 mm 8 mps 749 mmHg 70%
    05:00 +11°C° 0.2 mm 7 mps 749 mmHg 69%
    06:00 +11°C° 0.2 mm 6 mps 749 mmHg 68%
    07:00 +11°C° 0 mm 6 mps 749 mmHg 65%
    08:00 +13°C° 0 mm 5 mps 750 mmHg 61%
    09:00 +13°C° 0 mm 4 mps 750 mmHg 58%
    10:00 +14°C° 0 mm 6 mps 750 mmHg 60%
    11:00 +13°C° 0 mm 9 mps 749 mmHg 61%
    12:00 +14°C° 0 mm 11 mps 749 mmHg 62%
    13:00 +14°C° 0 mm 12 mps 748 mmHg 61%
    14:00 +14°C° 0 mm 14 mps 747 mmHg 59%
    15:00 +13°C° 0 mm 15 mps 747 mmHg 58%
    16:00 +13°C° 0 mm 14 mps 747 mmHg 62%
    17:00 +12°C° 0 mm 14 mps 747 mmHg 66%
    18:00 +12°C° 0 mm 13 mps 747 mmHg 70%
    19:00 +12°C° 0 mm 13 mps 747 mmHg 70%
    20:00 +12°C° 0 mm 14 mps 747 mmHg 71%
    21:00 +12°C° 0 mm 14 mps 748 mmHg 71%
    22:00 +12°C° 0 mm 14 mps 747 mmHg 72%
    23:00 +12°C° 0 mm 14 mps 747 mmHg 73%

    24 January, Thursday

    Time Temperature Precipitation Wind Pressure Humidity
    00:00 +12°C° 0 mm 14 mps 747 mmHg 75%
    01:00 +12°C° 0.1 mm 14 mps 747 mmHg 75%
    02:00 +12°C° 0.1 mm 13 mps 747 mmHg 76%
    03:00 +12°C° 0.1 mm 13 mps 746 mmHg 76%
    04:00 +12°C° 1.1 mm 12 mps 747 mmHg 76%
    05:00 +12°C° 1.1 mm 11 mps 747 mmHg 76%
    06:00 +12°C° 1.1 mm 10 mps 747 mmHg 76%
    07:00 +12°C° 0.7 mm 10 mps 748 mmHg 71%
    08:00 +12°C° 0.7 mm 10 mps 748 mmHg 66%
    09:00 +12°C° 0.7 mm 11 mps 749 mmHg 61%
    10:00 +12°C° 0 mm 10 mps 749 mmHg 56%
    11:00 +12°C° 0 mm 10 mps 750 mmHg 50%
    12:00 +13°C° 0 mm 9 mps 750 mmHg 44%
    13:00 +13°C° 0 mm 9 mps 749 mmHg 44%
    14:00 +13°C° 0 mm 8 mps 749 mmHg 43%
    15:00 +13°C° 0 mm 8 mps 749 mmHg 43%
    16:00 +14°C° 0 mm 7 mps 749 mmHg 46%
    17:00 +14°C° 0 mm 5 mps 750 mmHg 48%
    18:00 +13°C° 0 mm 4 mps 750 mmHg 50%
    19:00 +13°C° 0 mm 4 mps 750 mmHg 52%
    20:00 +13°C° 0 mm 4 mps 751 mmHg 55%
    21:00 +12°C° 0 mm 4 mps 752 mmHg 57%
    22:00 +12°C° 0 mm 4 mps 752 mmHg 59%
    23:00 +11°C° 0 mm 4 mps 752 mmHg 62%

    25 January, Friday

    Time Temperature Precipitation Wind Pressure Humidity
    00:00 +11°C° 0 mm 4 mps 752 mmHg 64%
    01:00 +10°C° 0 mm 3 mps 752 mmHg 65%
    02:00 +10°C° 0 mm 3 mps 752 mmHg 65%
    03:00 +10°C° 0 mm 3 mps 752 mmHg 66%
    04:00 +9°C° 0 mm 3 mps 752 mmHg 64%
    05:00 +9°C° 0 mm 2 mps 753 mmHg 63%
    06:00 +9°C° 0 mm 2 mps 753 mmHg 62%
    07:00 +10°C° 0 mm 2 mps 753 mmHg 57%
    08:00 +12°C° 0 mm 1 mps 754 mmHg 52%
    09:00 +13°C° 0 mm 1 mps 755 mmHg 47%
    10:00 +14°C° 0 mm 1 mps 755 mmHg 43%
    11:00 +14°C° 0 mm 1 mps 755 mmHg 39%
    12:00 +15°C° 0 mm 2 mps 755 mmHg 35%
    13:00 +15°C° 0 mm 2 mps 755 mmHg 34%
    14:00 +16°C° 0 mm 2 mps 754 mmHg 33%
    15:00 +16°C° 0 mm 2 mps 754 mmHg 32%
    16:00 +15°C° 0 mm 2 mps 754 mmHg 39%
    17:00 +13°C° 0 mm 1 mps 754 mmHg 46%
    18:00 +12°C° 0 mm 1 mps 754 mmHg 52%
    19:00 +12°C° 0 mm 1 mps 755 mmHg 51%
    20:00 +12°C° 0 mm 1 mps 755 mmHg 50%
    21:00 +12°C° 0 mm 2 mps 755 mmHg 49%
    22:00 +11°C° 0 mm 1 mps 755 mmHg 49%
    23:00 +11°C° 0 mm 1 mps 755 mmHg 49%
    Show more